AD8BW Weather Reports


Display with metric or nautical units.
time (UTC)temp
F
wind
direction
speed
MPH
gust
MPH
rain 1hr
in
rain 24hr
in
rain mn
in
humidity
%
barometer
mb
20260502220118 46 284 4.0 7.0 0.00 0.00 0.00 45 1014.7
20260502215113 46 289 2.0 11.0 0.00 0.00 0.00 46 1014.7
20260502214116 46 291 2.0 7.0 0.00 0.00 0.00 47 1014.7
20260502213110 46 263 2.0 5.0 0.00 0.00 0.00 47 1014.7
20260502212110 46 265 2.0 9.0 0.00 0.00 0.00 47 1014.7
20260502211108 46 0 2.0 7.0 0.00 0.00 0.00 49 1014.7
20260502210110 46 188 2.0 11.0 0.00 0.00 0.00 48 1014.8
20260502205106 46 327 4.0 11.0 0.00 0.00 0.00 49 1014.7
20260502204107 45 340 4.0 7.0 0.00 0.00 0.00 49 1014.9
20260502203106 45 275 2.0 9.0 0.00 0.00 0.00 49 1015.0
20260502202104 45 286 2.0 11.0 0.00 0.00 0.00 49 1015.0
20260502201107 46 325 4.0 11.0 0.00 0.00 0.00 50 1015.1
20260502200106 46 0 4.0 12.0 0.00 0.00 0.00 49 1015.2
20260502195102 46 325 2.0 12.0 0.00 0.00 0.00 49 1015.4
20260502194101 47 344 2.0 9.0 0.00 0.00 0.00 49 1015.4
20260502193104 45 239 2.0 11.0 0.00 0.00 0.00 50 1015.6
20260502192101 45 351 2.0 9.0 0.00 0.00 0.00 48 1015.6
20260502191100 45 333 2.0 11.0 0.00 0.00 0.00 50 1015.7
20260502190104 46 345 2.0 7.0 0.00 0.00 0.00 49 1015.8
20260502185104 46 267 4.0 9.0 0.00 0.00 0.00 48 1015.8
20260502184102 46 300 4.0 7.0 0.00 0.00 0.00 49 1015.9
20260502183100 45 348 4.0 7.0 0.00 0.00 0.00 50 1016.0
20260502182103 45 194 4.0 7.0 0.00 0.00 0.00 50 1016.0
20260502181102 44 323 4.0 12.0 0.00 0.00 0.00 52 1016.1
20260502164059 43 268 4.0 9.0 0.00 0.00 0.00 49 1016.4
20260502163056 44 334 5.0 18.0 0.00 0.00 0.00 49 1016.4
20260502162058 44 267 4.0 11.0 0.00 0.00 0.00 50 1016.4
20260502161058 42 327 4.0 11.0 0.00 0.00 0.00 51 1016.5
20260502160123 43 275 4.0 9.0 0.00 0.00 0.00 50 1016.6
20260502152053 41 355 4.0 11.0 0.00 0.00 0.00 54 1016.6
20260502151051 41 293 4.0 11.0 0.00 0.00 0.00 55 1016.5
20260502123044 37 332 4.0 7.0 0.00 0.00 0.00 76 1016.6
20260502122044 37 253 2.0 7.0 0.00 0.00 0.00 78 1016.6
20260502121043 37 292 2.0 7.0 0.00 0.00 0.00 81 1016.6
20260502115046 36 304 2.0 5.0 0.00 0.00 0.00 86 1016.5
20260502114040 36 293 2.0 7.0 0.00 0.00 0.00 87 1016.5
20260502113034 35 0 0.0 5.0 0.00 0.00 0.00 89 1016.4
20260502112038 34 49 0.0 0.0 0.00 0.00 0.00 90 1016.3
20260502111034 34 49 0.0 0.0 0.00 0.00 0.00 90 1016.3
20260502110036 34 49 0.0 0.0 0.00 0.00 0.00 90 1016.3
20260502105030 33 49 0.0 0.0 0.00 0.00 0.00 90 1016.2
20260502104032 33 49 0.0 0.0 0.00 0.00 0.00 90 1016.1
20260502103031 32 49 0.0 0.0 0.00 0.00 0.00 89 1016.1
20260502102031 33 49 0.0 0.0 0.00 0.00 0.00 89 1016.0
20260502101032 33 49 0.0 0.0 0.00 0.00 0.00 88 1016.0
20260502091030 35 49 0.0 0.0 0.00 0.00 0.00 85 1015.8
20260502071017 36 49 0.0 0.0 0.00 0.00 0.00 78 1015.5
20260502070017 36 49 0.0 0.0 0.00 0.00 0.00 79 1015.7
20260502065019 36 49 0.0 0.0 0.00 0.00 0.00 81 1015.7
20260502064019 36 49 0.0 0.0 0.00 0.00 0.00 80 1015.8
20260502063018 36 49 0.0 0.0 0.00 0.00 0.00 79 1015.9
20260502062020 36 49 0.0 0.0 0.00 0.00 0.00 79 1016.0
20260502061017 36 49 0.0 0.0 0.00 0.00 0.00 78 1016.1
20260502060018 36 49 0.0 0.0 0.00 0.00 0.00 79 1016.2
20260502055020 37 49 0.0 0.0 0.00 0.00 0.00 78 1016.1
20260502054013 37 49 0.0 0.0 0.00 0.00 0.00 79 1016.2
20260502053012 36 49 0.0 0.0 0.00 0.00 0.00 79 1016.3
20260502052015 36 49 0.0 0.0 0.00 0.00 0.00 80 1016.2
20260502051013 36 40 0.0 0.0 0.00 0.00 0.00 81 1016.1
20260502050014 37 40 0.0 2.0 0.00 0.00 0.00 81 1016.0
20260502045012 37 40 0.0 4.0 0.00 0.00 0.00 81 1015.9
20260502044010 37 50 0.0 0.0 0.00 0.00 0.00 81 1015.9
20260502043010 37 56 0.0 0.0 0.00 0.00 0.00 80 1015.7
20260502042011 37 59 0.0 4.0 0.00 0.00 0.00 79 1015.8
20260502041001 37 86 0.0 4.0 0.00 0.00 0.00 79 1015.7
20260502040004 37 69 0.0 0.0 0.00 0.00 0.00 78 1015.7
20260502035001 37 88 0.0 0.0 0.00 0.00 0.00 79 1015.7
20260502034005 37 88 0.0 0.0 0.00 0.00 0.00 78 1015.5
20260502033004 37 88 0.0 0.0 0.00 0.00 0.00 78 1015.5
20260502032004 38 88 0.0 0.0 0.00 0.00 0.00 78 1015.5
20260502030958 38 87 0.0 0.0 0.00 0.00 0.00 77 1015.4
20260502025959 38 85 0.0 4.0 0.00 0.00 0.00 77 1015.5
20260502025002 38 64 0.0 5.0 0.00 0.00 0.00 76 1015.5
20260502024000 38 61 0.0 4.0 0.00 0.00 0.00 77 1015.2
20260502023001 38 47 0.0 5.0 0.00 0.00 0.00 76 1015.4
20260502022000 38 82 0.0 7.0 0.00 0.00 0.00 76 1015.2
20260502021003 39 85 2.0 7.0 0.00 0.00 0.00 75 1015.2
20260502020000 39 35 2.0 5.0 0.00 0.00 0.00 75 1015.2
20260502015008 39 45 2.0 7.0 0.00 0.00 0.00 74 1015.1
20260502013953 40 44 2.0 7.0 0.00 0.00 0.00 72 1015.0
20260502012956 41 349 4.0 11.0 0.00 0.00 0.00 70 1014.8
20260502011956 42 321 0.0 2.0 0.00 0.00 0.00 67 1014.4
20260502010954 42 321 0.0 4.0 0.00 0.00 0.00 66 1014.2
20260502005957 42 316 0.0 2.0 0.00 0.00 0.00 66 1014.2
20260502004953 42 314 0.0 4.0 0.00 0.00 0.00 65 1014.2
20260502003952 42 319 0.0 4.0 0.00 0.00 0.00 65 1014.2
20260502002952 43 331 2.0 5.0 0.00 0.00 0.00 64 1014.1
20260502002000 43 345 2.0 7.0 0.00 0.00 0.00 64 1014.0
20260502000957 43 333 2.0 5.0 0.00 0.00 0.00 65 1014.0
20260501235957 43 336 2.0 5.0 0.00 0.00 0.00 65 1013.9
20260501235000 43 328 2.0 5.0 0.00 0.00 0.00 64 1013.9
20260501234001 43 286 2.0 7.0 0.00 0.00 0.00 64 1013.8
20260501232945 44 309 4.0 7.0 0.00 0.00 0.00 64 1013.8
20260501231944 44 277 2.0 9.0 0.00 0.00 0.00 64 1013.8
20260501230945 44 315 2.0 7.0 0.00 0.00 0.00 63 1013.8
20260501225944 44 286 2.0 7.0 0.00 0.00 0.00 63 1013.8
20260501224945 44 333 4.0 7.0 0.00 0.00 0.00 62 1013.7
20260501223946 44 321 4.0 11.0 0.00 0.00 0.00 61 1013.7
20260501222945 44 345 4.0 7.0 0.00 0.00 0.00 61 1013.7
20260501221953 45 293 4.0 7.0 0.00 0.00 0.00 60 1013.6
20260501220954 45 328 2.0 5.0 0.00 0.00 0.00 60 1013.6